Time,TemperatureF,DewpointF,PressureIn,WindDirection,WindDirectionDegrees,WindSpeedMPH,WindSpeedGustMPH,Humidity,HourlyPrecipIn,Conditions,Clouds,dailyrainin,SoftwareType,DateUTC
2013-06-04 00:00:00,65.2,51.8,29.78,South,173,7.0,7.0,62,0.00,,,0.00,Wunderground v.1.15,2013-06-04 05:00:00,
2013-06-04 00:10:00,65.3,51.5,29.79,South,189,8.0,8.0,61,0.00,,,0.00,Wunderground v.1.15,2013-06-04 05:10:00,
2013-06-04 00:20:00,65.4,51.6,29.81,SSW,196,7.0,15.0,61,0.00,,,0.00,Wunderground v.1.15,2013-06-04 05:20:00,
2013-06-04 00:25:00,65.4,51.6,29.82,SSW,206,7.0,15.0,61,0.00,,,0.00,Wunderground v.1.15,2013-06-04 05:25:00,
2013-06-04 00:35:00,65.4,51.6,29.82,SSW,200,8.0,15.0,61,0.00,,,0.00,Wunderground v.1.15,2013-06-04 05:35:00,
2013-06-04 00:45:00,65.2,52.3,29.82,SSW,201,7.0,12.0,63,0.00,,,0.01,Wunderground v.1.15,2013-06-04 05:45:00,
2013-06-04 00:50:00,63.8,53.0,29.81,South,184,8.0,8.0,68,0.19,,,0.04,Wunderground v.1.15,2013-06-04 05:50:00,
2013-06-04 01:00:00,62.5,53.7,29.80,SSE,156,6.0,15.0,73,0.06,,,0.04,Wunderground v.1.15,2013-06-04 06:00:00,
2013-06-04 01:10:00,62.4,53.6,29.77,SSE,153,6.0,15.0,73,0.00,,,0.00,Wunderground v.1.15,2013-06-04 06:10:00,
2013-06-04 01:20:00,62.4,53.6,29.76,South,190,5.0,15.0,73,0.00,,,0.00,Wunderground v.1.15,2013-06-04 06:20:00,
2013-06-04 01:25:00,63.1,53.2,29.79,NNE,17,6.0,15.0,70,0.00,,,0.00,Wunderground v.1.15,2013-06-04 06:25:00,
2013-06-04 01:30:00,63.8,53.0,29.80,ENE,69,5.0,15.0,68,0.00,,,0.00,Wunderground v.1.15,2013-06-04 06:30:00,
2013-06-04 01:40:00,63.9,53.1,29.81,South,180,6.0,6.0,68,0.00,,,0.00,Wunderground v.1.15,2013-06-04 06:40:00,
2013-06-04 01:50:00,63.2,53.3,29.78,SE,132,4.0,15.0,70,0.00,,,0.00,Wunderground v.1.15,2013-06-04 06:50:00,
2013-06-04 02:00:00,62.9,53.4,29.78,East,92,4.0,15.0,71,0.00,,,0.00,Wunderground v.1.15,2013-06-04 07:00:00,
2013-06-04 02:05:00,62.9,53.7,29.77,East,84,4.0,15.0,72,0.00,,,0.00,Wunderground v.1.15,2013-06-04 07:05:00,
2013-06-04 02:10:00,62.8,53.6,29.78,ESE,107,4.0,15.0,72,0.00,,,0.00,Wunderground v.1.15,2013-06-04 07:10:00,
2013-06-04 02:20:00,62.7,53.5,29.75,East,98,5.0,15.0,72,0.00,,,0.00,Wunderground v.1.15,2013-06-04 07:20:00,
2013-06-04 02:30:00,62.8,53.6,29.77,East,95,7.0,7.0,72,0.00,,,0.00,Wunderground v.1.15,2013-06-04 07:30:00,
2013-06-04 02:35:00,62.8,53.6,29.78,ESE,121,5.0,15.0,72,0.00,,,0.00,Wunderground v.1.15,2013-06-04 07:35:00,
2013-06-04 02:45:00,62.6,53.8,29.78,SE,126,4.0,15.0,73,0.00,,,0.00,Wunderground v.1.15,2013-06-04 07:45:00,
2013-06-04 02:50:00,62.5,54.1,29.79,South,175,5.0,15.0,74,0.00,,,0.00,Wunderground v.1.15,2013-06-04 07:50:00,
2013-06-04 03:00:00,62.5,54.1,29.79,SSE,157,7.0,7.0,74,0.00,,,0.00,Wunderground v.1.15,2013-06-04 08:00:00,
2013-06-04 03:10:00,62.4,54.0,29.79,SSE,154,6.0,15.0,74,0.00,,,0.00,Wunderground v.1.15,2013-06-04 08:10:00,
2013-06-04 03:20:00,62.5,54.1,29.82,SSW,207,5.0,5.0,74,0.00,,,0.00,Wunderground v.1.15,2013-06-04 08:20:00,
2013-06-04 03:25:00,62.4,54.0,29.81,SSW,207,3.0,15.0,74,0.00,,,0.00,Wunderground v.1.15,2013-06-04 08:25:00,
2013-06-04 03:35:00,62.2,54.2,29.80,South,171,1.0,2.0,75,0.00,,,0.00,Wunderground v.1.15,2013-06-04 08:35:00,
2013-06-04 03:40:00,62.0,54.0,29.81,SSE,168,2.0,15.0,75,0.00,,,0.00,Wunderground v.1.15,2013-06-04 08:40:00,
2013-06-04 03:50:00,61.9,54.2,29.81,South,170,3.0,15.0,76,0.00,,,0.00,Wunderground v.1.15,2013-06-04 08:50:00,
2013-06-04 04:00:00,61.8,54.2,29.79,SSE,152,4.0,15.0,76,0.00,,,0.00,Wunderground v.1.15,2013-06-04 09:00:00,
2013-06-04 04:10:00,61.6,54.3,29.79,SSE,163,2.0,15.0,77,0.00,,,0.00,Wunderground v.1.15,2013-06-04 09:10:00,
2013-06-04 04:15:00,61.4,54.1,29.79,South,183,2.0,15.0,77,0.00,,,0.00,Wunderground v.1.15,2013-06-04 09:15:00,
2013-06-04 04:20:00,61.4,54.1,29.79,SE,146,3.0,3.0,77,0.00,,,0.00,Wunderground v.1.15,2013-06-04 09:20:00,
2013-06-04 04:30:00,61.3,54.0,29.78,SE,140,3.0,15.0,77,0.00,,,0.00,Wunderground v.1.15,2013-06-04 09:30:00,
2013-06-04 04:40:00,61.2,54.3,29.78,SSE,162,4.0,15.0,78,0.00,,,0.00,Wunderground v.1.15,2013-06-04 09:40:00,
2013-06-04 04:50:00,61.2,54.3,29.78,South,169,3.0,15.0,78,0.00,,,0.00,Wunderground v.1.15,2013-06-04 09:50:00,
2013-06-04 05:00:00,61.2,54.3,29.77,SSE,159,3.0,3.0,78,0.00,,,0.00,Wunderground v.1.15,2013-06-04 10:00:00,
2013-06-04 05:10:00,61.0,54.4,29.76,SE,132,2.0,15.0,79,0.00,,,0.00,Wunderground v.1.15,2013-06-04 10:10:00,
2013-06-04 05:20:00,61.0,54.4,29.77,NE,47,4.0,4.0,79,0.00,,,0.00,Wunderground v.1.15,2013-06-04 10:20:00,
2013-06-04 05:30:00,61.0,54.4,29.77,East,91,3.0,15.0,79,0.00,,,0.00,Wunderground v.1.15,2013-06-04 10:30:00,
2013-06-04 05:40:00,60.6,54.4,29.78,ESE,121,2.0,15.0,80,0.00,,,0.00,Wunderground v.1.15,2013-06-04 10:40:00,
2013-06-04 05:50:00,60.5,54.6,29.78,East,92,2.0,15.0,81,0.00,,,0.00,Wunderground v.1.15,2013-06-04 10:50:00,
2013-06-04 06:00:00,60.6,54.7,29.79,East,88,3.0,3.0,81,0.00,,,0.00,Wunderground v.1.15,2013-06-04 11:00:00,
2013-06-04 06:10:00,60.6,54.7,29.79,East,92,3.0,8.0,81,0.00,,,0.00,Wunderground v.1.15,2013-06-04 11:10:00,
2013-06-04 06:15:00,60.6,54.7,29.80,East,92,3.0,8.0,81,0.00,,,0.00,Wunderground v.1.15,2013-06-04 11:15:00,
2013-06-04 06:25:00,60.7,54.8,29.81,East,92,1.0,8.0,81,0.00,,,0.00,Wunderground v.1.15,2013-06-04 11:25:00,
2013-06-04 06:30:00,60.6,54.7,29.81,East,92,1.0,1.0,81,0.00,,,0.00,Wunderground v.1.15,2013-06-04 11:30:00,
2013-06-04 06:40:00,60.4,54.5,29.81,East,92,0.0,8.0,81,0.00,,,0.00,Wunderground v.1.15,2013-06-04 11:40:00,
2013-06-04 06:50:00,59.9,54.4,29.82,East,92,1.0,1.0,82,0.00,,,0.00,Wunderground v.1.15,2013-06-04 11:50:00,
2013-06-04 07:00:00,59.7,54.2,29.82,East,92,1.0,1.0,82,0.00,,,0.00,Wunderground v.1.15,2013-06-04 12:00:00,
2013-06-04 07:05:00,59.7,54.5,29.82,East,92,0.0,8.0,83,0.00,,,0.00,Wunderground v.1.15,2013-06-04 12:05:00,
2013-06-04 07:10:00,59.7,54.5,29.82,East,92,0.0,8.0,83,0.00,,,0.00,Wunderground v.1.15,2013-06-04 12:10:00,
2013-06-04 07:20:00,59.8,54.6,29.82,East,92,2.0,2.0,83,0.00,,,0.00,Wunderground v.1.15,2013-06-04 12:20:00,
2013-06-04 07:30:00,60.1,54.9,29.83,East,92,0.0,8.0,83,0.00,,,0.00,Wunderground v.1.15,2013-06-04 12:30:00,
2013-06-04 07:40:00,60.5,55.3,29.83,East,92,0.0,8.0,83,0.00,,,0.00,Wunderground v.1.15,2013-06-04 12:40:00,
2013-06-04 07:50:00,61.0,55.5,29.83,East,92,2.0,2.0,82,0.00,,,0.00,Wunderground v.1.15,2013-06-04 12:50:00,
2013-06-04 08:00:00,62.2,56.0,29.83,East,92,2.0,8.0,80,0.00,,,0.00,Wunderground v.1.15,2013-06-04 13:00:00,
2013-06-04 08:10:00,63.2,56.2,29.83,East,92,3.0,8.0,78,0.00,,,0.00,Wunderground v.1.15,2013-06-04 13:10:00,
2013-06-04 08:15:00,63.8,56.4,29.83,East,92,4.0,8.0,77,0.00,,,0.00,Wunderground v.1.15,2013-06-04 13:15:00,
2013-06-04 08:20:00,64.3,56.9,29.84,East,92,3.0,3.0,77,0.00,,,0.00,Wunderground v.1.15,2013-06-04 13:20:00,
2013-06-04 08:30:00,64.3,56.2,29.84,East,93,2.0,2.0,75,0.00,,,0.00,Wunderground v.1.15,2013-06-04 13:30:00,
2013-06-04 08:40:00,64.4,56.7,29.85,East,93,2.0,2.0,76,0.00,,,0.00,Wunderground v.1.15,2013-06-04 13:40:00,
2013-06-04 08:50:00,64.1,56.4,29.85,East,93,1.0,8.0,76,0.00,,,0.00,Wunderground v.1.15,2013-06-04 13:50:00,
2013-06-04 09:00:00,63.4,55.7,29.85,East,93,2.0,8.0,76,0.00,,,0.00,Wunderground v.1.15,2013-06-04 14:00:00,
2013-06-04 09:15:00,62.7,56.8,29.86,WNW,292,3.0,8.0,81,0.08,,,0.03,Wunderground v.1.15,2013-06-04 14:15:00,
2013-06-04 09:25:00,62.5,56.9,29.86,WNW,302,3.0,8.0,82,0.00,,,0.03,Wunderground v.1.15,2013-06-04 14:25:00,
2013-06-04 09:30:00,62.4,56.8,29.87,NW,307,2.0,8.0,82,0.00,,,0.04,Wunderground v.1.15,2013-06-04 14:30:00,
2013-06-04 09:40:00,61.9,56.7,29.87,NW,309,5.0,5.0,83,0.10,,,0.06,Wunderground v.1.15,2013-06-04 14:40:00,
2013-06-04 09:50:00,61.8,56.9,29.87,NNW,346,2.0,8.0,84,0.06,,,0.07,Wunderground v.1.15,2013-06-04 14:50:00,
2013-06-04 10:00:00,61.9,57.3,29.89,WNW,287,5.0,12.0,85,0.00,,,0.07,Wunderground v.1.15,2013-06-04 15:00:00,
2013-06-04 10:05:00,62.0,57.4,29.89,NW,311,7.0,12.0,85,0.00,,,0.07,Wunderground v.1.15,2013-06-04 15:05:00,
2013-06-04 10:10:00,62.0,57.4,29.89,NNW,329,5.0,8.0,85,0.00,,,0.07,Wunderground v.1.15,2013-06-04 15:10:00,
2013-06-04 10:20:00,61.8,57.2,29.88,NNW,346,5.0,8.0,85,0.00,,,0.07,Wunderground v.1.15,2013-06-04 15:20:00,
2013-06-04 10:30:00,61.8,56.9,29.88,North,349,7.0,8.0,84,0.00,,,0.07,Wunderground v.1.15,2013-06-04 15:30:00,
2013-06-04 10:40:00,61.6,56.7,29.87,NNW,341,8.0,11.0,84,0.00,,,0.07,Wunderground v.1.15,2013-06-04 15:40:00,
2013-06-04 10:45:00,61.4,56.5,29.87,NNW,344,9.0,11.0,84,0.00,,,0.07,Wunderground v.1.15,2013-06-04 15:45:00,
2013-06-04 10:50:00,61.4,56.5,29.87,NNE,19,10.0,10.0,84,0.00,,,0.07,Wunderground v.1.15,2013-06-04 15:50:00,
2013-06-04 11:00:00,61.8,56.9,29.88,NNW,348,9.0,9.0,84,0.00,,,0.07,Wunderground v.1.15,2013-06-04 16:00:00,
2013-06-04 11:10:00,62.3,56.0,29.88,North,355,9.0,9.0,80,0.00,,,0.07,Wunderground v.1.15,2013-06-04 16:10:00,
2013-06-04 11:20:00,62.6,55.3,29.88,North,5,9.0,9.0,77,0.00,,,0.07,Wunderground v.1.15,2013-06-04 16:20:00,
2013-06-04 11:25:00,62.6,54.2,29.88,NNW,348,10.0,10.0,74,0.00,,,0.07,Wunderground v.1.15,2013-06-04 16:25:00,
2013-06-04 11:35:00,62.9,54.9,29.88,NNW,342,9.0,10.0,75,0.00,,,0.07,Wunderground v.1.15,2013-06-04 16:35:00,
2013-06-04 11:40:00,62.9,53.7,29.88,NNW,340,9.0,9.0,72,0.00,,,0.07,Wunderground v.1.15,2013-06-04 16:40:00,
2013-06-04 11:50:00,63.2,53.6,29.88,NNE,12,8.0,8.0,71,0.00,,,0.07,Wunderground v.1.15,2013-06-04 16:50:00,
2013-06-04 12:00:00,62.7,52.0,29.89,NNW,329,5.0,18.0,68,0.00,,,0.07,Wunderground v.1.15,2013-06-04 17:00:00,
2013-06-04 12:10:00,61.8,52.3,29.93,WNW,300,9.0,9.0,71,0.00,,,0.07,Wunderground v.1.15,2013-06-04 17:10:00,
2013-06-04 12:15:00,61.4,52.3,29.93,NW,326,7.0,18.0,72,0.00,,,0.07,Wunderground v.1.15,2013-06-04 17:15:00,
2013-06-04 12:25:00,61.2,51.3,29.93,NNW,344,5.0,7.0,70,0.00,,,0.07,Wunderground v.1.15,2013-06-04 17:25:00,
2013-06-04 12:30:00,61.3,51.8,29.91,NNE,17,6.0,6.0,71,0.00,,,0.07,Wunderground v.1.15,2013-06-04 17:30:00,
2013-06-04 12:40:00,60.7,52.4,29.89,NNE,33,3.0,3.0,74,0.17,,,0.09,Wunderground v.1.15,2013-06-04 17:40:00,
2013-06-04 12:50:00,60.5,53.3,29.91,North,360,2.0,2.0,77,0.07,,,0.10,Wunderground v.1.15,2013-06-04 17:50:00,
2013-06-04 13:00:00,60.8,53.5,29.91,ENE,64,1.0,18.0,77,0.04,,,0.10,Wunderground v.1.15,2013-06-04 18:00:00,
2013-06-04 13:05:00,61.2,53.9,29.91,NE,49,2.0,18.0,77,0.00,,,0.10,Wunderground v.1.15,2013-06-04 18:05:00,
2013-06-04 13:10:00,62.3,56.0,29.91,ENE,78,2.0,2.0,80,0.00,,,0.10,Wunderground v.1.15,2013-06-04 18:10:00,
2013-06-04 13:20:00,63.9,57.6,29.91,NNE,17,3.0,18.0,80,0.00,,,0.10,Wunderground v.1.15,2013-06-04 18:20:00,
2013-06-04 13:30:00,65.4,56.5,29.91,NE,49,3.0,3.0,73,0.00,,,0.10,Wunderground v.1.15,2013-06-04 18:30:00,
2013-06-04 13:40:00,65.5,55.5,29.91,NE,49,2.0,18.0,70,0.00,,,0.10,Wunderground v.1.15,2013-06-04 18:40:00,
2013-06-04 13:50:00,66.9,55.6,29.90,North,5,3.0,3.0,67,0.00,,,0.10,Wunderground v.1.15,2013-06-04 18:50:00,
2013-06-04 13:55:00,67.7,56.3,29.91,NE,39,2.0,18.0,67,0.00,,,0.10,Wunderground v.1.15,2013-06-04 18:55:00,
2013-06-04 14:05:00,69.1,56.0,29.90,NNE,25,3.0,18.0,63,0.00,,,0.10,Wunderground v.1.15,2013-06-04 19:05:00,
2013-06-04 14:10:00,69.7,56.1,29.90,NNE,21,4.0,18.0,62,0.00,,,0.10,Wunderground v.1.15,2013-06-04 19:10:00,
2013-06-04 14:20:00,70.2,54.7,29.90,NNW,348,6.0,18.0,58,0.00,,,0.10,Wunderground v.1.15,2013-06-04 19:20:00,
2013-06-04 14:30:00,70.9,53.4,29.91,North,9,6.0,6.0,54,0.00,,,0.10,Wunderground v.1.15,2013-06-04 19:30:00,
2013-06-04 14:40:00,71.2,53.2,29.90,NNE,28,4.0,4.0,53,0.00,,,0.10,Wunderground v.1.15,2013-06-04 19:40:00,
2013-06-04 14:45:00,71.6,54.1,29.90,NNW,340,3.0,7.0,54,0.00,,,0.10,Wunderground v.1.15,2013-06-04 19:45:00,
2013-06-04 14:55:00,71.8,54.3,29.91,ENE,59,5.0,18.0,54,0.00,,,0.10,Wunderground v.1.15,2013-06-04 19:55:00,
2013-06-04 15:00:00,71.9,53.8,29.90,North,11,4.0,18.0,53,0.00,,,0.10,Wunderground v.1.15,2013-06-04 20:00:00,
2013-06-04 15:10:00,72.2,53.6,29.90,NNW,346,4.0,18.0,52,0.00,,,0.10,Wunderground v.1.15,2013-06-04 20:10:00,
2013-06-04 15:20:00,72.2,54.1,29.90,North,355,5.0,18.0,53,0.00,,,0.10,Wunderground v.1.15,2013-06-04 20:20:00,
2013-06-04 15:30:00,72.5,51.1,29.90,ENE,71,4.0,4.0,47,0.00,,,0.10,Wunderground v.1.15,2013-06-04 20:30:00,
2013-06-04 15:35:00,72.7,52.4,29.90,NE,37,4.0,18.0,49,0.00,,,0.10,Wunderground v.1.15,2013-06-04 20:35:00,
2013-06-04 15:45:00,73.1,54.4,29.90,North,360,4.0,18.0,52,0.00,,,0.10,Wunderground v.1.15,2013-06-04 20:45:00,
2013-06-04 15:55:00,73.0,54.3,29.90,NNW,345,5.0,18.0,52,0.00,,,0.10,Wunderground v.1.15,2013-06-04 20:55:00,
2013-06-04 16:00:00,72.7,50.1,29.90,NNW,333,7.0,18.0,45,0.00,,,0.10,Wunderground v.1.15,2013-06-04 21:00:00,
2013-06-04 16:10:00,73.1,54.4,29.90,NNE,32,5.0,5.0,52,0.00,,,0.10,Wunderground v.1.15,2013-06-04 21:10:00,
2013-06-04 16:20:00,73.3,53.5,29.90,NNE,13,5.0,5.0,50,0.00,,,0.10,Wunderground v.1.15,2013-06-04 21:20:00,
2013-06-04 16:30:00,73.0,50.4,29.90,NE,36,5.0,5.0,45,0.00,,,0.10,Wunderground v.1.15,2013-06-04 21:30:00,
2013-06-04 16:35:00,73.2,53.4,29.90,NNW,344,4.0,18.0,50,0.00,,,0.10,Wunderground v.1.15,2013-06-04 21:35:00,
2013-06-04 16:40:00,73.3,51.8,29.90,ENE,64,4.0,4.0,47,0.00,,,0.10,Wunderground v.1.15,2013-06-04 21:40:00,
2013-06-04 16:50:00,73.1,52.2,29.90,NNE,17,5.0,5.0,48,0.00,,,0.10,Wunderground v.1.15,2013-06-04 21:50:00,
2013-06-04 17:00:00,73.1,51.1,29.91,NNE,27,5.0,5.0,46,0.00,,,0.10,Wunderground v.1.15,2013-06-04 22:00:00,
2013-06-04 17:10:00,72.7,51.3,29.91,NNE,12,6.0,18.0,47,0.00,,,0.10,Wunderground v.1.15,2013-06-04 22:10:00,
2013-06-04 17:15:00,72.8,50.8,29.91,North,360,6.0,18.0,46,0.00,,,0.10,Wunderground v.1.15,2013-06-04 22:15:00,
2013-06-04 17:20:00,72.7,52.4,29.91,North,5,6.0,18.0,49,0.00,,,0.10,Wunderground v.1.15,2013-06-04 22:20:00,
2013-06-04 17:30:00,72.6,51.8,29.91,NNE,32,5.0,5.0,48,0.00,,,0.10,Wunderground v.1.15,2013-06-04 22:30:00,
2013-06-04 17:40:00,73.1,52.8,29.91,NE,47,3.0,18.0,49,0.00,,,0.10,Wunderground v.1.15,2013-06-04 22:40:00,
2013-06-04 17:50:00,72.9,54.2,29.91,NNW,333,4.0,18.0,52,0.00,,,0.10,Wunderground v.1.15,2013-06-04 22:50:00,
2013-06-04 17:55:00,72.8,52.5,29.91,ESE,104,4.0,18.0,49,0.00,,,0.10,Wunderground v.1.15,2013-06-04 22:55:00,
2013-06-04 18:00:00,72.8,53.1,29.91,North,9,4.0,4.0,50,0.00,,,0.10,Wunderground v.1.15,2013-06-04 23:00:00,
2013-06-04 18:10:00,72.9,52.6,29.91,NNW,340,5.0,14.0,49,0.00,,,0.10,Wunderground v.1.15,2013-06-04 23:10:00,
2013-06-04 18:20:00,72.7,52.4,29.91,NNW,345,5.0,5.0,49,0.00,,,0.10,Wunderground v.1.15,2013-06-04 23:20:00,
2013-06-04 18:30:00,72.9,52.1,29.92,NE,47,3.0,14.0,48,0.00,,,0.10,Wunderground v.1.15,2013-06-04 23:30:00,
2013-06-04 18:40:00,72.1,50.2,29.92,North,355,6.0,14.0,46,0.00,,,0.10,Wunderground v.1.15,2013-06-04 23:40:00,
2013-06-04 18:45:00,71.9,50.6,29.92,NNE,29,8.0,14.0,47,0.00,,,0.10,Wunderground v.1.15,2013-06-04 23:45:00,
2013-06-04 18:55:00,72.3,50.9,29.93,North,355,3.0,14.0,47,0.00,,,0.10,Wunderground v.1.15,2013-06-04 23:55:00,
2013-06-04 19:00:00,72.4,52.7,29.93,North,5,3.0,14.0,50,0.00,,,0.10,Wunderground v.1.15,2013-06-05 00:00:00,
2013-06-04 19:10:00,72.3,52.1,29.93,NE,45,3.0,3.0,49,0.00,,,0.10,Wunderground v.1.15,2013-06-05 00:10:00,
2013-06-04 19:20:00,72.3,53.7,29.93,North,355,2.0,14.0,52,0.00,,,0.10,Wunderground v.1.15,2013-06-05 00:20:00,
2013-06-04 19:30:00,72.2,52.0,29.94,NE,38,2.0,2.0,49,0.00,,,0.10,Wunderground v.1.15,2013-06-05 00:30:00,
2013-06-04 19:35:00,72.0,51.8,29.94,NNE,20,2.0,14.0,49,0.00,,,0.10,Wunderground v.1.15,2013-06-05 00:35:00,
2013-06-04 19:45:00,71.2,49.9,29.94,NNE,26,3.0,14.0,47,0.00,,,0.10,Wunderground v.1.15,2013-06-05 00:45:00,
2013-06-04 19:50:00,71.0,49.2,29.94,NNE,15,3.0,3.0,46,0.00,,,0.10,Wunderground v.1.15,2013-06-05 00:50:00,
2013-06-04 20:00:00,71.0,49.7,29.95,North,355,2.0,14.0,47,0.00,,,0.10,Wunderground v.1.15,2013-06-05 01:00:00,
2013-06-04 20:10:00,70.4,50.3,29.95,NNW,345,2.0,14.0,49,0.00,,,0.10,Wunderground v.1.15,2013-06-05 01:10:00,
2013-06-04 20:20:00,69.9,49.9,29.95,NE,35,2.0,2.0,49,0.00,,,0.10,Wunderground v.1.15,2013-06-05 01:20:00,
2013-06-04 20:25:00,69.7,50.2,29.95,NE,35,1.0,14.0,50,0.00,,,0.10,Wunderground v.1.15,2013-06-05 01:25:00,
2013-06-04 20:35:00,69.0,50.6,29.95,NE,35,1.0,14.0,52,0.00,,,0.10,Wunderground v.1.15,2013-06-05 01:35:00,
2013-06-04 20:40:00,68.6,51.3,29.95,NE,35,1.0,14.0,54,0.00,,,0.10,Wunderground v.1.15,2013-06-05 01:40:00,
2013-06-04 20:50:00,67.6,50.9,29.95,NE,34,2.0,14.0,55,0.00,,,0.10,Wunderground v.1.15,2013-06-05 01:50:00,
2013-06-04 21:00:00,66.7,51.5,29.95,NNE,15,1.0,14.0,58,0.00,,,0.10,Wunderground v.1.15,2013-06-05 02:00:00,
2013-06-04 21:10:00,65.8,51.1,29.95,NNE,17,1.0,14.0,59,0.00,,,0.10,Wunderground v.1.15,2013-06-05 02:10:00,
2013-06-04 21:15:00,65.4,51.6,29.95,NNE,17,0.0,14.0,61,0.00,,,0.10,Wunderground v.1.15,2013-06-05 02:15:00,
2013-06-04 21:20:00,64.9,50.7,29.96,NNE,17,0.0,14.0,60,0.00,,,0.10,Wunderground v.1.15,2013-06-05 02:20:00,
2013-06-04 21:30:00,64.1,50.8,29.96,NNE,17,0.0,14.0,62,0.00,,,0.10,Wunderground v.1.15,2013-06-05 02:30:00,
2013-06-04 21:40:00,63.5,50.2,29.97,North,355,1.0,14.0,62,0.00,,,0.10,Wunderground v.1.15,2013-06-05 02:40:00,
2013-06-04 21:50:00,63.1,50.3,29.97,North,355,1.0,1.0,63,0.00,,,0.10,Wunderground v.1.15,2013-06-05 02:50:00,
2013-06-04 22:00:00,62.5,50.2,29.98,North,355,1.0,14.0,64,0.00,,,0.10,Wunderground v.1.15,2013-06-05 03:00:00,
2013-06-04 22:05:00,62.1,50.2,29.99,North,355,2.0,14.0,65,0.00,,,0.10,Wunderground v.1.15,2013-06-05 03:05:00,
2013-06-04 22:15:00,61.9,50.0,30.00,North,355,3.0,14.0,65,0.00,,,0.10,Wunderground v.1.15,2013-06-05 03:15:00,
2013-06-04 22:20:00,61.8,49.9,30.00,North,355,3.0,3.0,65,0.00,,,0.10,Wunderground v.1.15,2013-06-05 03:20:00,
2013-06-04 22:30:00,61.7,49.8,30.01,NNW,342,2.0,14.0,65,0.00,,,0.10,Wunderground v.1.15,2013-06-05 03:30:00,
2013-06-04 22:40:00,61.8,49.5,30.02,NNW,340,3.0,14.0,64,0.00,,,0.10,Wunderground v.1.15,2013-06-05 03:40:00,
2013-06-04 22:50:00,61.9,49.2,30.02,NNW,333,4.0,14.0,63,0.00,,,0.10,Wunderground v.1.15,2013-06-05 03:50:00,
2013-06-04 23:00:00,61.6,48.9,30.02,NNW,341,4.0,14.0,63,0.00,,,0.10,Wunderground v.1.15,2013-06-05 04:00:00,
2013-06-04 23:05:00,61.5,48.8,30.02,NNW,344,5.0,14.0,63,0.00,,,0.10,Wunderground v.1.15,2013-06-05 04:05:00,
2013-06-04 23:10:00,61.3,49.0,30.02,North,349,4.0,4.0,64,0.00,,,0.10,Wunderground v.1.15,2013-06-05 04:10:00,
2013-06-04 23:15:00,61.0,48.7,30.02,North,355,4.0,14.0,64,0.00,,,0.10,Wunderground v.1.15,2013-06-05 04:15:00,
2013-06-04 23:20:00,60.8,49.0,30.02,North,355,3.0,14.0,65,0.00,,,0.10,Wunderground v.1.15,2013-06-05 04:20:00,
2013-06-04 23:25:00,60.6,48.8,30.01,North,350,3.0,14.0,65,0.00,,,0.10,Wunderground v.1.15,2013-06-05 04:25:00,
2013-06-04 23:30:00,60.4,49.0,30.00,North,355,4.0,14.0,66,0.00,,,0.10,Wunderground v.1.15,2013-06-05 04:30:00,
2013-06-04 23:40:00,60.2,49.2,30.00,NNW,344,5.0,14.0,67,0.00,,,0.10,Wunderground v.1.15,2013-06-05 04:40:00,
2013-06-04 23:50:00,60.5,49.1,30.01,NNW,340,6.0,14.0,66,0.00,,,0.10,Wunderground v.1.15,2013-06-05 04:50:00,
2013-06-04 23:55:00,60.6,49.2,30.00,NNW,346,6.0,14.0,66,0.00,,,0.10,Wunderground v.1.15,2013-06-05 04:55:00,